Showing default

COSMOS 2247, 22648

Orbit data source: Space-Track

COSMOS 2247, 22648 is a payload satellite owned by VKS (CIS) in LEO that was launched on Tue, 11 May 1993 UTC via a TSIKLON-3 launch vehicle from the Plesetsk Missile And Space Complex (PKMTR). Payload-class satellites include a variety of spacecraft equipped with specific instruments for various scientific and technological missions. These include communications satellites like Starlink; space stations such as the ISS; scientific satellites like the Hubble; Earth observation satellites from companies like Planet Labs, Umbra, and HawkEye 360; GPS; miniature CubeSats for education and research; and military/defense satellites.

Loading next visibility...
Identifier
22648, 1993-030C
Orbit
LEO
Country
Flag of CISCIS
Related business
Manufacturer
NPO PM
Mission
Defense Communications
Bus & Motor
STRELA-3, Unknown motor
Mass
225 kg wet, 225 kg dry
Launch date (UTC)
1993-05-11 (32 years ago)
Launch vehicle
TSIKLON-3
Launch site
Plesetsk Missile And Space Complex (PKMTR)
Object type
Payload
Rocket body
Debris
Shape & HBR
Cyl, 0.8 m
Radar Cross Section
1.257 m², Large (>1 m²)

Expand to show TLE details & history
Last TLE update: 21 hours ago

TLE from 21 hours ago
0 COSMOS 2247
1 22648U 93030C   25309.17934050  .00000009  00000-0 -12047-4 0  9993
2 22648  82.5762  99.1863 0008989  88.2041  84.4736 12.63271053497795
Epoch: 2025-11-05T04:18Z
TLE epoch observation values (Epoch: 2025-11-05T04:18:15.019Z)
Latitude
7.0912°
Longitude
169.04381°
Altitude
1,410.898 km
Speed
7.156 km/s
True Right ascension
18h 33m 02s
True Declination
7° 03' 10"
Sunlit
Object was in daylight at epoch
Visualization orbit readout
Latitude
Unknown
Longitude
Unknown
Altitude
Unknown
Speed
Unknown
Apparent Right ascension
Unknown
Apparent Declination
Unknown
Sunlit
N/A
Visualization observer readout
Local Sidereal Time
21:44:28
Azimuth
Unknown
Elevation
Unknown
Doppler factor
Unknown
Orbital elements
Apogee altitude
1,413.789 km
Perigee altitude
1,399.794 km
Semi-major axis
7,784.929 km
Eccentricity
0.0009
Inclination
82.5762°
RAAN
99.1863°
Arg. of periapsis
88.2041°
True anomaly
84.57614°
Mean anomaly
84.4736°
Eccentric anomaly
84.52487°
Mean motion
3.15981 °/min
Orbital period
113.93 mins
BSTAR
-0.000012047
Loading maneuver chart data...
Computing Atmospheric mass density...
Loading historical data...
Loading historical data...
Loading historical data...
Loading historical data...
Loading historical data...
Loading historical data...
Loading historical data...

Documentation

Showing up to 5 results
|